Simultaneous Nadir Overpasses (SNOs) Predictions

Prediction of SNOs between NPP and TERRA Satellite Orbit:

Table of predicted SNOs for the next 14.0 days since TLE Epoch: 3/9/2013
Index Date (NPP) Time (NPP) Lat,Lon (NPP) SZA (NPP ) Date (TERRA) Time (TERRA) Lat,Lon (TERRA) SZA (TERRA ) Distance(km) Time Diff (sec)
1 03/10/2013 03:45:44 -68.24, -58.10 107.75 03/10/2013 03:46:30 -68.23, -58.05 107.77 2.38 46
2 03/10/2013 04:36:27 68.07, 109.43 72.06 03/10/2013 04:35:58 68.07, 109.40 72.06 1.21 29
3 03/10/2013 05:26:51 -67.01, -81.97 109.05 03/10/2013 05:25:44 -67.07, -84.10 108.92 92.54 67
4 03/12/2013 19:12:13 69.02,-110.69 72.02 03/12/2013 19:13:21 68.91,-108.98 71.85 69.32 68
5 03/12/2013 20:02:41 -68.17, 57.75 108.88 03/12/2013 20:03:02 -68.19, 57.77 108.87 1.75 21
6 03/12/2013 20:53:24 68.00,-134.72 70.94 03/12/2013 20:52:30 68.02,-134.78 70.96 3.34 54
7 03/15/2013 11:28:57 68.26, 6.09 70.17 03/15/2013 11:30:04 68.23, 6.06 70.13 3.31 67
8 03/15/2013 12:19:38 -68.11, 173.60 110.01 03/15/2013 12:19:34 -68.13, 173.57 109.99 2.58 4
9 03/15/2013 13:10:17 67.72, -18.61 69.59 03/15/2013 13:09:05 67.79, -19.18 69.68 24.85 72
10 03/18/2013 03:45:53 68.21, 121.92 69.05 03/18/2013 03:46:34 68.22, 121.92 69.05 1.23 41
11 03/18/2013 04:36:35 -68.10, -70.63 111.07 03/18/2013 04:36:04 -68.12, -70.57 111.06 2.87 31
12 03/20/2013 19:12:19 -68.96, 69.38 111.23 03/20/2013 19:13:28 -68.86, 70.93 111.37 63.21 69
13 03/20/2013 20:02:50 68.15,-122.25
